Lid_Strength_Index
-0 0 0 0 0 0 0 0 -1 -0 -1 -1 -1 -1 -1 -0 -0 -0 0 0 0 1
0 0 0 -0 -0 0 -0 -0 -0 -0 -0 -1 -1 -1 -1 1 -0 -0 -0 -0 0 1
0 0 -0 -0 0 -0 -0 -0 -0 -0 -0 -0 -0 -1 -1 0 -0 -0 0 0 0 0
1 1 0 0 0 -0 -0 -0 0 -0 -0 0 -0 -0 -0 -0 -0 0 0 -0 0 0
2 2 1 1 0 -0 0 -0 -0 -0 0 0 0 -0 0 0 0 1 1 1 0 0
3 3 2 2 2 1 1 1 -0 -0 0 0 0 0 0 0 0 0 1 0 1 1
3 3 2 2 1 1 1 1 1 1 0 0 0 0 0 0 1 1 1 0 0 1
3 2 2 2 2 2 2 2 2 2 2 1 0 1 0 0 1 1 1 0 0 0
4 3 3 3 3 3 3 3 3 3 3 2 2 4 5 2 1 0 1 1 1 0
4 5 4 4 4 4 4 3 3 3 3 3 3 6 6 5 2 2 1 1 1 2
5 5 5 5 5 4 4 4 4 5 5 5 4 6 7 7 5 5 3 2 2 2
6 6 6 6 6 5 6 6 6 6 6 7 6 8 9 8 5 5 4 3 3 4
6 7 7 7 7 7 7 8 8 8 8 8 8 9 10 9 6 4 4 3 3 5
7 7 8 8 9 10 10 11 11 11 10 9 9 7 8 8 5 5 5 4 4 3